SEL1504 SVMC-SVPR

Flight info

Callsign SEL1504
Flight time 1h 24m
Altitude 23000
Route ASIBA1 GIDOX W5 BRM W14 USOTI W27 MIGED MIGED1
Aircraft B738/M-SDE2E3FGHIRWXY/LB1

Departure

Time 2026-05-04 05:16
Airport La Chinita International Airport (SVMC)

Arrival

Time 2026-05-04 06:40
Airport General Manuel Carlos Piar International Airport (SVPR)
Time Latitude Longitude Altitude Speed Heading
2026-05-04 05:00 10.55847 -71.72329 211 ft 0 kts 112°
2026-05-04 05:06 10.55871 -71.72385 214 ft 4 kts 114°
2026-05-04 05:06 10.55882 -71.72409 211 ft 4 kts 120°
2026-05-04 05:06 10.55894 -71.72427 212 ft 2 kts 142°
2026-05-04 05:07 10.55907 -71.72433 216 ft 2 kts 192°
2026-05-04 05:07 10.55918 -71.72429 214 ft 2 kts 206°
2026-05-04 05:07 10.55920 -71.72428 209 ft 0 kts 206°
2026-05-04 05:09 10.55788 -71.72485 208 ft 7 kts 204°
2026-05-04 05:09 10.55741 -71.72506 208 ft 7 kts 204°
2026-05-04 05:10 10.55696 -71.72527 211 ft 7 kts 204°
2026-05-04 05:10 10.55659 -71.72555 208 ft 7 kts 245°
2026-05-04 05:10 10.55667 -71.72602 211 ft 7 kts 291°
2026-05-04 05:10 10.55685 -71.72647 212 ft 7 kts 292°
2026-05-04 05:11 10.55705 -71.72697 211 ft 8 kts 289°
2026-05-04 05:11 10.55685 -71.72744 213 ft 8 kts 216°
2026-05-04 05:11 10.55638 -71.72767 210 ft 7 kts 203°
2026-05-04 05:11 10.55592 -71.72787 211 ft 7 kts 203°
2026-05-04 05:12 10.55547 -71.72806 212 ft 7 kts 202°
2026-05-04 05:12 10.55502 -71.72824 215 ft 8 kts 202°
2026-05-04 05:12 10.55438 -71.72851 211 ft 12 kts 202°
2026-05-04 05:12 10.55342 -71.72891 214 ft 17 kts 202°
2026-05-04 05:13 10.55221 -71.72942 208 ft 20 kts 202°
2026-05-04 05:13 10.55079 -71.73000 210 ft 24 kts 202°
2026-05-04 05:13 10.54920 -71.73069 209 ft 25 kts 204°
2026-05-04 05:13 10.54767 -71.73135 215 ft 23 kts 204°
2026-05-04 05:14 10.54645 -71.73235 214 ft 22 kts 226°
2026-05-04 05:14 10.54577 -71.73329 221 ft 10 kts 264°
2026-05-04 05:14 10.54603 -71.73392 218 ft 10 kts 327°
2026-05-04 05:14 10.54639 -71.73390 221 ft 1 kts 18°
2026-05-04 05:15 10.54671 -71.73380 218 ft 13 kts 17°
2026-05-04 05:15 10.54942 -71.73263 210 ft 80 kts 22°
2026-05-04 05:15 10.55673 -71.72958 212 ft 144 kts 23°
2026-05-04 05:15 10.56727 -71.72496 507 ft 170 kts 24°
2026-05-04 05:16 10.57692 -71.72025 1568 ft 146 kts 27°
2026-05-04 05:16 10.58671 -71.71599 2176 ft 157 kts 23°
2026-05-04 05:16 10.59772 -71.71152 2533 ft 186 kts 22°
2026-05-04 05:16 10.61012 -71.70502 2774 ft 216 kts 44°
2026-05-04 05:17 10.61677 -71.69091 3035 ft 235 kts 86°
2026-05-04 05:17 10.61411 -71.67431 3623 ft 242 kts 106°
2026-05-04 05:17 10.60862 -71.65757 4048 ft 259 kts 109°
2026-05-04 05:17 10.60241 -71.63998 4759 ft 267 kts 109°
2026-05-04 05:18 10.59620 -71.62219 5637 ft 268 kts 109°
2026-05-04 05:18 10.59003 -71.60409 6448 ft 272 kts 108°
2026-05-04 05:18 10.58511 -71.58931 7068 ft 275 kts 108°
2026-05-04 05:18 10.57903 -71.57076 7840 ft 278 kts 108°
2026-05-04 05:19 10.57296 -71.55200 8650 ft 281 kts 108°
2026-05-04 05:19 10.56688 -71.53302 9429 ft 284 kts 108°
2026-05-04 05:19 10.56077 -71.51380 10171 ft 288 kts 108°
2026-05-04 05:19 10.55441 -71.49376 10434 ft 310 kts 108°
2026-05-04 05:20 10.54759 -71.47215 10611 ft 332 kts 108°
2026-05-04 05:20 10.54031 -71.44907 10763 ft 353 kts 108°
2026-05-04 05:20 10.53527 -71.43308 10905 ft 363 kts 108°
2026-05-04 05:20 10.52749 -71.40840 11388 ft 369 kts 108°
2026-05-04 05:21 10.51964 -71.38348 12022 ft 371 kts 108°
2026-05-04 05:21 10.50911 -71.35003 12858 ft 373 kts 108°
2026-05-04 05:21 10.50387 -71.33340 13244 ft 375 kts 108°
2026-05-04 05:21 10.49589 -71.30807 13800 ft 378 kts 108°
2026-05-04 05:22 10.48785 -71.28257 14295 ft 381 kts 108°
2026-05-04 05:22 10.47974 -71.25685 14789 ft 383 kts 108°
2026-05-04 05:22 10.47160 -71.23102 15269 ft 386 kts 108°
2026-05-04 05:22 10.46337 -71.20494 15749 ft 388 kts 108°
2026-05-04 05:23 10.45510 -71.17872 16213 ft 391 kts 108°
2026-05-04 05:23 10.44717 -71.15217 16686 ft 394 kts 105°
2026-05-04 05:23 10.44014 -71.12520 17128 ft 396 kts 104°
2026-05-04 05:23 10.43348 -71.09794 17568 ft 399 kts 104°
2026-05-04 05:24 10.42687 -71.07046 18010 ft 402 kts 104°
2026-05-04 05:24 10.42021 -71.04283 18410 ft 404 kts 104°
2026-05-04 05:24 10.41344 -71.01500 18746 ft 408 kts 104°
2026-05-04 05:24 10.40655 -70.98694 19070 ft 411 kts 104°
2026-05-04 05:25 10.39956 -70.95870 19406 ft 414 kts 104°
2026-05-04 05:25 10.39258 -70.93057 19728 ft 417 kts 104°
2026-05-04 05:25 10.38544 -70.90189 20042 ft 421 kts 104°
2026-05-04 05:25 10.37823 -70.87295 20349 ft 424 kts 104°
2026-05-04 05:26 10.37097 -70.84386 20675 ft 427 kts 104°
2026-05-04 05:26 10.36365 -70.81454 20974 ft 430 kts 104°
2026-05-04 05:26 10.35628 -70.78500 21275 ft 433 kts 103°
2026-05-04 05:26 10.34887 -70.75530 21566 ft 435 kts 103°
2026-05-04 05:27 10.34138 -70.72533 21862 ft 438 kts 103°
2026-05-04 05:28 10.28838 -70.51344 22990 ft 459 kts 103°
2026-05-04 05:29 10.28047 -70.48189 22983 ft 463 kts 103°
2026-05-04 05:29 10.27253 -70.45022 22969 ft 461 kts 103°
2026-05-04 05:29 10.26461 -70.41864 22971 ft 461 kts 103°
2026-05-04 05:29 10.25669 -70.38713 22979 ft 460 kts 103°
2026-05-04 05:31 10.20135 -70.16692 22983 ft 460 kts 103°
2026-05-04 05:31 10.19344 -70.13549 22979 ft 459 kts 103°
2026-05-04 05:32 10.18554 -70.10412 22976 ft 459 kts 103°
2026-05-04 05:32 10.17762 -70.07269 22978 ft 459 kts 103°
2026-05-04 05:32 10.17051 -70.04110 22981 ft 459 kts 101°
2026-05-04 05:33 10.15872 -69.97754 22991 ft 458 kts 99°
2026-05-04 05:33 10.15318 -69.94608 22988 ft 458 kts 99°
2026-05-04 05:33 10.14752 -69.91422 22984 ft 458 kts 99°
2026-05-04 05:33 10.14176 -69.88241 22991 ft 459 kts 99°
2026-05-04 05:34 10.13590 -69.85056 22991 ft 459 kts 99°
2026-05-04 05:34 10.13000 -69.81878 22997 ft 459 kts 99°
2026-05-04 05:34 10.12406 -69.78696 22993 ft 459 kts 99°
2026-05-04 05:34 10.11810 -69.75509 22997 ft 459 kts 99°
2026-05-04 05:35 10.11215 -69.72331 23005 ft 459 kts 100°
2026-05-04 05:35 10.10618 -69.69145 23003 ft 459 kts 99°
2026-05-04 05:35 10.10022 -69.65960 23008 ft 460 kts 100°
2026-05-04 05:35 10.09575 -69.63569 23008 ft 460 kts 100°
2026-05-04 05:36 10.09197 -69.61555 23008 ft 460 kts 99°
2026-05-04 05:36 10.08600 -69.58362 23009 ft 460 kts 100°
2026-05-04 05:36 10.08003 -69.55179 23003 ft 460 kts 100°
2026-05-04 05:36 10.07406 -69.51989 23009 ft 460 kts 100°
2026-05-04 05:37 10.06806 -69.48793 23006 ft 460 kts 100°
2026-05-04 05:37 10.06207 -69.45603 23011 ft 460 kts 100°
2026-05-04 05:37 10.05610 -69.42418 23007 ft 460 kts 100°
2026-05-04 05:38 10.04441 -69.36082 23013 ft 459 kts 97°
2026-05-04 05:38 10.04200 -69.32859 23007 ft 458 kts 89°
2026-05-04 05:38 10.04289 -69.29629 23009 ft 458 kts 87°
2026-05-04 05:38 10.04421 -69.26363 23003 ft 458 kts 86°
2026-05-04 05:39 10.04547 -69.23132 23010 ft 458 kts 87°
2026-05-04 05:39 10.04746 -69.16715 23009 ft 458 kts 88°
2026-05-04 05:39 10.04829 -69.13485 23004 ft 458 kts 88°
2026-05-04 05:40 10.04971 -69.07019 22995 ft 459 kts 89°
2026-05-04 05:40 10.04897 -69.03779 23000 ft 459 kts 91°
2026-05-04 05:40 10.04746 -69.00546 23006 ft 459 kts 92°
2026-05-04 05:41 10.04570 -68.97306 23003 ft 460 kts 92°
2026-05-04 05:41 10.04397 -68.94071 23002 ft 460 kts 92°
2026-05-04 05:41 10.04233 -68.90828 23006 ft 460 kts 92°
2026-05-04 05:41 10.04081 -68.87583 23003 ft 460 kts 92°
2026-05-04 05:42 10.03934 -68.84333 23001 ft 460 kts 92°
2026-05-04 05:42 10.03791 -68.81088 23004 ft 460 kts 92°
2026-05-04 05:42 10.03648 -68.77845 23008 ft 461 kts 92°
2026-05-04 05:42 10.03505 -68.74598 23000 ft 461 kts 92°
2026-05-04 05:43 10.03360 -68.71348 23000 ft 461 kts 92°
2026-05-04 05:43 10.03215 -68.68104 23002 ft 461 kts 92°
2026-05-04 05:43 10.03069 -68.64850 23004 ft 460 kts 92°
2026-05-04 05:45 10.02051 -68.42126 23004 ft 461 kts 92°
2026-05-04 05:45 10.01906 -68.38923 23000 ft 461 kts 92°
2026-05-04 05:47 10.00902 -68.17072 22994 ft 462 kts 91°
2026-05-04 05:47 10.00748 -68.13811 22998 ft 463 kts 92°
2026-05-04 05:47 10.00594 -68.10550 22998 ft 464 kts 92°
2026-05-04 05:48 10.00439 -68.07280 23000 ft 464 kts 92°
2026-05-04 05:48 10.00284 -68.04004 22991 ft 465 kts 92°
2026-05-04 05:48 10.00128 -68.00730 22996 ft 465 kts 92°
2026-05-04 05:48 9.99996 -67.97936 22984 ft 465 kts 92°
2026-05-04 05:49 9.99843 -67.94726 22991 ft 465 kts 92°
2026-05-04 05:49 9.99686 -67.91449 22996 ft 465 kts 92°
2026-05-04 05:49 9.99531 -67.88207 22992 ft 465 kts 92°
2026-05-04 05:49 9.99374 -67.84930 22995 ft 465 kts 92°
2026-05-04 05:51 9.98254 -67.62011 22994 ft 464 kts 92°
2026-05-04 05:51 9.98094 -67.58737 22994 ft 464 kts 92°
2026-05-04 05:52 9.97933 -67.55472 22996 ft 464 kts 92°
2026-05-04 05:52 9.97771 -67.52199 22985 ft 464 kts 92°
2026-05-04 05:52 9.97610 -67.48931 22996 ft 464 kts 92°
2026-05-04 05:52 9.97447 -67.45659 22999 ft 465 kts 92°
2026-05-04 05:53 9.97285 -67.42382 22992 ft 465 kts 92°
2026-05-04 05:54 9.96138 -67.19469 22990 ft 465 kts 92°
2026-05-04 05:55 9.95973 -67.16198 22996 ft 464 kts 92°
2026-05-04 05:55 9.95962 -67.12919 22997 ft 464 kts 86°
2026-05-04 05:55 9.96159 -67.09818 23003 ft 464 kts 84°
2026-05-04 05:55 9.96430 -67.06560 22995 ft 464 kts 84°
2026-05-04 05:56 9.96720 -67.03296 22994 ft 464 kts 84°
2026-05-04 05:56 9.97003 -67.00034 23001 ft 465 kts 84°
2026-05-04 05:56 9.97268 -66.96809 23003 ft 465 kts 84°
2026-05-04 05:56 9.97525 -66.93540 22998 ft 465 kts 84°
2026-05-04 05:57 9.97773 -66.90265 22994 ft 465 kts 85°
2026-05-04 05:57 9.98016 -66.86995 23002 ft 465 kts 85°
2026-05-04 05:57 9.98256 -66.83729 22996 ft 465 kts 85°
2026-05-04 05:57 9.98496 -66.80460 23007 ft 464 kts 85°
2026-05-04 05:58 9.98736 -66.77196 23007 ft 465 kts 85°
2026-05-04 05:58 9.98977 -66.73924 22994 ft 465 kts 85°
2026-05-04 05:58 9.99217 -66.70656 23002 ft 465 kts 85°
2026-05-04 05:58 9.99457 -66.67388 23001 ft 465 kts 85°
2026-05-04 05:59 9.99698 -66.64112 23002 ft 465 kts 85°
2026-05-04 05:59 9.99939 -66.60839 23002 ft 465 kts 85°
2026-05-04 05:59 10.00179 -66.57562 23001 ft 465 kts 85°
2026-05-04 05:59 10.00418 -66.54287 23001 ft 466 kts 85°
2026-05-04 06:00 10.00657 -66.51016 22995 ft 466 kts 85°
2026-05-04 06:00 10.00896 -66.47738 22992 ft 466 kts 85°
2026-05-04 06:00 10.01135 -66.44459 22997 ft 466 kts 84°
2026-05-04 06:00 10.01374 -66.41182 22998 ft 466 kts 84°
2026-05-04 06:01 10.01612 -66.37898 22993 ft 466 kts 84°
2026-05-04 06:01 10.01848 -66.34654 22995 ft 467 kts 84°
2026-05-04 06:03 9.95490 -66.13032 22993 ft 471 kts 118°
2026-05-04 06:03 9.93905 -66.10127 22985 ft 471 kts 118°
2026-05-04 06:05 9.83347 -65.89549 22979 ft 469 kts 116°
2026-05-04 06:05 9.80354 -65.83669 22974 ft 469 kts 117°
2026-05-04 06:05 9.78854 -65.80727 22972 ft 469 kts 116°
2026-05-04 06:06 9.77358 -65.77797 22979 ft 469 kts 117°
2026-05-04 06:06 9.75876 -65.74895 22972 ft 469 kts 117°
2026-05-04 06:06 9.74380 -65.71965 22974 ft 469 kts 117°
2026-05-04 06:06 9.72877 -65.69023 22969 ft 469 kts 117°
2026-05-04 06:07 9.71377 -65.66086 22973 ft 469 kts 117°
2026-05-04 06:07 9.69877 -65.63149 22972 ft 468 kts 117°
2026-05-04 06:07 9.68378 -65.60218 22962 ft 468 kts 117°
2026-05-04 06:07 9.66881 -65.57288 22965 ft 468 kts 117°
2026-05-04 06:08 9.65384 -65.54361 22968 ft 468 kts 117°
2026-05-04 06:08 9.63885 -65.51429 22964 ft 468 kts 117°
2026-05-04 06:08 9.62387 -65.48500 22962 ft 468 kts 117°
2026-05-04 06:08 9.60890 -65.45576 22965 ft 468 kts 117°
2026-05-04 06:09 9.59394 -65.42653 22965 ft 467 kts 117°
2026-05-04 06:09 9.58403 -65.40716 22964 ft 467 kts 117°
2026-05-04 06:11 9.47914 -65.20246 22966 ft 467 kts 117°
2026-05-04 06:11 9.46413 -65.17320 22966 ft 467 kts 117°
2026-05-04 06:13 9.35946 -64.96935 22967 ft 467 kts 117°
2026-05-04 06:14 9.26939 -64.79419 22968 ft 468 kts 117°
2026-05-04 06:14 9.25437 -64.76500 22970 ft 468 kts 117°
2026-05-04 06:15 9.23935 -64.73583 22967 ft 468 kts 117°
2026-05-04 06:15 9.22431 -64.70661 22968 ft 468 kts 117°
2026-05-04 06:15 9.20925 -64.67738 22965 ft 468 kts 117°
2026-05-04 06:15 9.19419 -64.64815 22972 ft 468 kts 117°
2026-05-04 06:16 9.17914 -64.61892 22972 ft 469 kts 117°
2026-05-04 06:16 9.16406 -64.58966 22979 ft 469 kts 117°
2026-05-04 06:16 9.14898 -64.56042 22975 ft 469 kts 117°
2026-05-04 06:16 9.13389 -64.53118 22975 ft 469 kts 117°
2026-05-04 06:17 9.11900 -64.50230 22976 ft 469 kts 117°
2026-05-04 06:17 9.10389 -64.47303 22976 ft 469 kts 117°
2026-05-04 06:17 9.08880 -64.44377 22979 ft 469 kts 117°
2026-05-04 06:17 9.07371 -64.41453 22977 ft 469 kts 117°
2026-05-04 06:18 9.05864 -64.38534 22978 ft 468 kts 117°
2026-05-04 06:18 9.04355 -64.35611 22980 ft 468 kts 117°
2026-05-04 06:18 9.02849 -64.32695 22980 ft 468 kts 117°
2026-05-04 06:20 8.92410 -64.12233 22984 ft 467 kts 114°
2026-05-04 06:20 8.91066 -64.09242 22980 ft 467 kts 113°
2026-05-04 06:21 8.85815 -63.97352 22977 ft 451 kts 114°
2026-05-04 06:21 8.84541 -63.94507 22978 ft 448 kts 114°
2026-05-04 06:22 8.83255 -63.91647 22979 ft 446 kts 114°
2026-05-04 06:22 8.81967 -63.88785 22624 ft 449 kts 114°
2026-05-04 06:25 8.66526 -63.54536 15105 ft 374 kts 113°
2026-05-04 06:25 8.65454 -63.52159 14477 ft 368 kts 113°
2026-05-04 06:26 8.64402 -63.49829 13919 ft 361 kts 113°
2026-05-04 06:26 8.63372 -63.47547 13333 ft 353 kts 113°
2026-05-04 06:26 8.62363 -63.45314 12812 ft 345 kts 113°
2026-05-04 06:26 8.61377 -63.43131 12304 ft 338 kts 113°
2026-05-04 06:27 8.57497 -63.34836 10899 ft 323 kts 114°
2026-05-04 06:28 8.56516 -63.32765 10746 ft 324 kts 114°
2026-05-04 06:28 8.55567 -63.30762 10581 ft 309 kts 114°
2026-05-04 06:28 8.54663 -63.28852 10445 ft 294 kts 114°
2026-05-04 06:28 8.53803 -63.27033 10313 ft 280 kts 114°
2026-05-04 06:29 8.52986 -63.25305 10206 ft 267 kts 114°
2026-05-04 06:29 8.52205 -63.23653 10091 ft 254 kts 114°
2026-05-04 06:29 8.51459 -63.22073 9988 ft 245 kts 114°
2026-05-04 06:29 8.50721 -63.20510 9750 ft 247 kts 114°
2026-05-04 06:30 8.49971 -63.18920 9488 ft 256 kts 114°
2026-05-04 06:30 8.49190 -63.17265 9195 ft 264 kts 114°
2026-05-04 06:30 8.48403 -63.15598 8884 ft 261 kts 115°
2026-05-04 06:30 8.47626 -63.13956 8578 ft 257 kts 115°
2026-05-04 06:31 8.46862 -63.12339 8276 ft 253 kts 115°
2026-05-04 06:31 8.46121 -63.10770 7997 ft 249 kts 115°
2026-05-04 06:31 8.45379 -63.09202 7720 ft 245 kts 115°
2026-05-04 06:31 8.44648 -63.07657 7444 ft 243 kts 115°
2026-05-04 06:32 8.43951 -63.06184 7199 ft 247 kts 115°
2026-05-04 06:33 8.38650 -62.95187 5242 ft 238 kts 115°
2026-05-04 06:34 8.37921 -62.93675 4995 ft 241 kts 115°
2026-05-04 06:34 8.37175 -62.92165 4720 ft 247 kts 120°
2026-05-04 06:34 8.35951 -62.90941 4420 ft 251 kts 149°
2026-05-04 06:34 8.34322 -62.90420 4299 ft 243 kts 170°
2026-05-04 06:35 8.32670 -62.90312 4196 ft 232 kts 175°
2026-05-04 06:36 8.24026 -62.87818 2735 ft 187 kts 84°
2026-05-04 06:37 8.24175 -62.86565 2471 ft 174 kts 85°
2026-05-04 06:37 8.24447 -62.85435 2264 ft 160 kts 72°
2026-05-04 06:37 8.24838 -62.84431 2055 ft 148 kts 68°
2026-05-04 06:37 8.25263 -62.83493 1868 ft 148 kts 66°
2026-05-04 06:38 8.25707 -62.82558 1706 ft 145 kts 66°
2026-05-04 06:38 8.26148 -62.81639 1475 ft 145 kts 66°
2026-05-04 06:40 8.29034 -62.75670 468 ft 32 kts 61°
2026-05-04 06:40 8.29025 -62.75566 470 ft 13 kts 145°
2026-05-04 06:40 8.28960 -62.75598 469 ft 12 kts 246°
2026-05-04 06:40 8.28927 -62.75676 469 ft 12 kts 247°
2026-05-04 06:41 8.28893 -62.75751 468 ft 12 kts 238°
2026-05-04 06:41 8.28850 -62.75819 469 ft 11 kts 240°
2026-05-04 06:41 8.28817 -62.75887 469 ft 8 kts 246°
2026-05-04 06:41 8.28774 -62.75906 468 ft 8 kts 162°
2026-05-04 06:42 8.28757 -62.75898 468 ft 0 kts 154°